Location: Mount Kobau Star Party
(49.1167°N, 119.7333°W)
Time: 11:35:31
(UTC-07:00)

ARIANE 6 FM1 Upper Stage - Pass Details

Date: 12 April 2026
Orbit: 526 x 601 km, 62.0° (Epoch: 18 May)

Event Time Altitude Azimuth Distance (km) Brightness Sun altitude
Rises 00:14:52 0° 302° (WNW) 2,691 6.7 -31.3°
Reaches altitude 10° 00:18:11 10° 331° (NNW) 1,788 6.0 -31.4°
Maximum altitude 00:20:05 13° 0° (N) 1,598 5.7 -31.5°
Drops below altitude 10° 00:22:00 10° 29° (NNE) 1,778 5.8 -31.6°
Sets 00:25:17 0° 58° (ENE) 2,663 6.4 -31.7°
